Tracking 30261 objects as of 18-Feb-2025
HD Live streaming from Space Station
objects crossing your sky now

STARLINK-5241

Track STARLINK-5241 now!
10-day predictions
STARLINK-5241 is classified as:


NORAD ID: 54204
Int'l Code: 2022-141AZ
Perigee: 546.0 km
Apogee: 547.9 km
Inclination: 53.2 °
Period: 95.4 minutes
Semi major axis: 6917 km
RCS: Unknown
Launch date: October 28, 2022
Source: United States (US)
Launch site: AIR FORCE WESTERN TEST RANGE (AFWTR)
Your satellite tracking list
Your tracking list is empty




NASA's NSSDC Master Catalog

Two Line Element Set (TLE):
1 54204U 22141AZ  25048.89892317  .00002469  00000-0  17320-3 0  9998
2 54204  53.2165 281.0841 0001363  88.1989 271.9160 15.08829313127915
Source of the keplerian elements: AFSPC